TAP1703 LPPR-LPMA

Flight info

Callsign TAP1703
Flight time 1h 41m
Altitude 35000
Route ASMOV DCT DIRMA DCT VABEM DCT LIDRO
Aircraft A21N/M-SDE2E3FGHIRWXY/LB1

Departure

Time 2026-05-06 12:26
Airport Francisco de Sá Carneiro Airport (LPPR)

Arrival

Time 2026-05-06 14:07
Airport Cristiano Ronaldo International Airport (LPMA)
Time Latitude Longitude Altitude Speed Heading
2026-05-06 11:32 41.23733 -8.67266 251 ft 0 kts 69°
2026-05-06 11:35 41.23733 -8.67267 251 ft 0 kts 69°
2026-05-06 11:48 41.23733 -8.67268 251 ft 0 kts 69°
2026-05-06 11:53 41.23732 -8.67268 251 ft 0 kts 69°
2026-05-06 12:01 41.23732 -8.67269 251 ft 0 kts 69°
2026-05-06 12:12 41.23729 -8.67280 250 ft 4 kts 70°
2026-05-06 12:12 41.23721 -8.67314 249 ft 4 kts 77°
2026-05-06 12:12 41.23716 -8.67349 248 ft 4 kts 87°
2026-05-06 12:13 41.23719 -8.67384 246 ft 4 kts 110°
2026-05-06 12:13 41.23726 -8.67403 246 ft 1 kts 127°
2026-05-06 12:13 41.23727 -8.67406 245 ft 1 kts 127°
2026-05-06 12:16 41.23728 -8.67406 245 ft 0 kts 127°
2026-05-06 12:20 41.23725 -8.67400 245 ft 3 kts 128°
2026-05-06 12:21 41.23704 -8.67365 247 ft 7 kts 128°
2026-05-06 12:21 41.23669 -8.67340 247 ft 7 kts 166°
2026-05-06 12:21 41.23610 -8.67328 247 ft 10 kts 191°
2026-05-06 12:21 41.23543 -8.67370 246 ft 12 kts 211°
2026-05-06 12:22 41.23461 -8.67383 245 ft 13 kts 168°
2026-05-06 12:22 41.23369 -8.67362 244 ft 13 kts 196°
2026-05-06 12:22 41.23335 -8.67420 241 ft 9 kts 248°
2026-05-06 12:22 41.23324 -8.67478 241 ft 6 kts 262°
2026-05-06 12:23 41.23321 -8.67509 241 ft 2 kts 262°
2026-05-06 12:23 41.23318 -8.67533 241 ft 3 kts 262°
2026-05-06 12:23 41.23314 -8.67571 241 ft 5 kts 261°
2026-05-06 12:23 41.23307 -8.67626 241 ft 7 kts 260°
2026-05-06 12:24 41.23292 -8.67702 243 ft 10 kts 255°
2026-05-06 12:24 41.23287 -8.67737 243 ft 4 kts 265°
2026-05-06 12:24 41.23300 -8.67776 243 ft 5 kts 323°
2026-05-06 12:24 41.23337 -8.67760 243 ft 7 kts 40°
2026-05-06 12:25 41.23389 -8.67755 243 ft 7 kts 348°
2026-05-06 12:25 41.23392 -8.67756 243 ft 0 kts 348°
2026-05-06 12:25 41.23405 -8.67759 243 ft 9 kts 348°
2026-05-06 12:26 41.23670 -8.67827 238 ft 75 kts 347°
2026-05-06 12:26 41.24395 -8.68016 215 ft 135 kts 347°
2026-05-06 12:26 41.25465 -8.68298 313 ft 167 kts 346°
2026-05-06 12:26 41.26520 -8.68612 1152 ft 146 kts 343°
2026-05-06 12:27 41.27483 -8.68914 1797 ft 147 kts 349°
2026-05-06 12:27 41.28519 -8.69142 2389 ft 152 kts 349°
2026-05-06 12:27 41.29595 -8.69366 2917 ft 164 kts 351°
2026-05-06 12:27 41.30776 -8.69645 3371 ft 184 kts 348°
2026-05-06 12:28 41.32095 -8.69976 3966 ft 200 kts 349°
2026-05-06 12:28 41.33507 -8.70321 4638 ft 212 kts 351°
2026-05-06 12:28 41.35000 -8.70672 5291 ft 224 kts 351°
2026-05-06 12:28 41.36611 -8.71037 5743 ft 246 kts 351°
2026-05-06 12:29 41.38378 -8.71442 6163 ft 267 kts 349°
2026-05-06 12:29 41.40106 -8.72318 7083 ft 266 kts 328°
2026-05-06 12:29 41.41334 -8.74177 7867 ft 276 kts 296°
2026-05-06 12:29 41.41875 -8.76644 8764 ft 281 kts 277°
2026-05-06 12:30 41.41830 -8.79262 9662 ft 286 kts 261°
2026-05-06 12:30 41.41363 -8.81829 10399 ft 294 kts 255°
2026-05-06 12:30 41.40714 -8.84518 10762 ft 316 kts 248°
2026-05-06 12:30 41.39469 -8.87051 11055 ft 339 kts 227°
2026-05-06 12:31 41.37648 -8.89211 11353 ft 360 kts 221°
2026-05-06 12:31 41.35692 -8.91341 11842 ft 371 kts 220°
2026-05-06 12:31 41.33686 -8.93541 12580 ft 374 kts 221°
2026-05-06 12:31 41.31681 -8.95774 13339 ft 377 kts 222°
2026-05-06 12:32 41.29665 -8.98038 14044 ft 380 kts 221°
2026-05-06 12:32 41.27656 -9.00303 14674 ft 383 kts 221°
2026-05-06 12:32 41.25606 -9.02612 15306 ft 386 kts 221°
2026-05-06 12:32 41.23576 -9.04899 15928 ft 388 kts 222°
2026-05-06 12:33 41.21510 -9.07229 16523 ft 390 kts 221°
2026-05-06 12:33 41.19418 -9.09579 16936 ft 393 kts 221°
2026-05-06 12:33 41.17316 -9.11933 17420 ft 397 kts 221°
2026-05-06 12:33 41.15195 -9.14310 18007 ft 399 kts 221°
2026-05-06 12:34 41.13064 -9.16697 18561 ft 401 kts 221°
2026-05-06 12:34 41.10952 -9.19063 19057 ft 402 kts 221°
2026-05-06 12:34 41.10279 -9.19816 19208 ft 403 kts 221°
2026-05-06 12:34 41.08564 -9.21734 19585 ft 405 kts 221°
2026-05-06 12:35 41.06425 -9.24124 20071 ft 407 kts 221°
2026-05-06 12:35 41.04249 -9.26556 20554 ft 410 kts 221°
2026-05-06 12:35 41.02061 -9.29001 21014 ft 412 kts 221°
2026-05-06 12:35 40.99853 -9.31471 21471 ft 415 kts 221°
2026-05-06 12:36 40.97637 -9.33952 21973 ft 417 kts 221°
2026-05-06 12:36 40.95537 -9.36552 22442 ft 419 kts 225°
2026-05-06 12:36 40.93457 -9.39268 22934 ft 421 kts 226°
2026-05-06 12:36 40.91370 -9.42004 23428 ft 424 kts 225°
2026-05-06 12:37 40.89264 -9.44759 23849 ft 426 kts 225°
2026-05-06 12:37 40.87143 -9.47527 24276 ft 428 kts 225°
2026-05-06 12:37 40.84961 -9.50233 24696 ft 431 kts 220°
2026-05-06 12:37 40.82602 -9.52604 25104 ft 433 kts 217°
2026-05-06 12:38 40.80152 -9.54943 25525 ft 435 kts 217°
2026-05-06 12:38 40.77687 -9.57282 25910 ft 437 kts 217°
2026-05-06 12:38 40.75213 -9.59636 26314 ft 439 kts 217°
2026-05-06 12:38 40.72732 -9.62002 26699 ft 440 kts 217°
2026-05-06 12:39 40.70267 -9.64353 27076 ft 442 kts 217°
2026-05-06 12:39 40.67767 -9.66735 27445 ft 443 kts 217°
2026-05-06 12:39 40.65268 -9.69112 27910 ft 442 kts 217°
2026-05-06 12:39 40.62774 -9.71480 28416 ft 440 kts 217°
2026-05-06 12:40 40.60291 -9.73838 28882 ft 438 kts 217°
2026-05-06 12:40 40.57859 -9.76149 29357 ft 436 kts 217°
2026-05-06 12:40 40.55397 -9.78484 29833 ft 435 kts 216°
2026-05-06 12:40 40.52934 -9.80818 30279 ft 433 kts 217°
2026-05-06 12:41 40.50493 -9.83131 30639 ft 432 kts 217°
2026-05-06 12:41 40.48081 -9.85412 30969 ft 432 kts 217°
2026-05-06 12:41 40.45638 -9.87719 31317 ft 431 kts 217°
2026-05-06 12:41 40.43199 -9.90022 31651 ft 431 kts 217°
2026-05-06 12:42 40.40765 -9.92315 31976 ft 430 kts 218°
2026-05-06 12:42 40.39152 -9.93828 32193 ft 430 kts 218°
2026-05-06 12:42 40.36714 -9.96120 32510 ft 430 kts 218°
2026-05-06 12:42 40.34283 -9.98405 32831 ft 430 kts 218°
2026-05-06 12:43 40.31844 -10.00697 33135 ft 429 kts 218°
2026-05-06 12:43 40.29418 -10.02977 33428 ft 429 kts 218°
2026-05-06 12:43 40.27018 -10.05232 33713 ft 429 kts 218°
2026-05-06 12:43 40.24585 -10.07515 33988 ft 428 kts 218°
2026-05-06 12:44 40.22161 -10.09787 34218 ft 428 kts 219°
2026-05-06 12:44 40.19728 -10.12058 34419 ft 429 kts 218°
2026-05-06 12:44 40.17296 -10.14327 34620 ft 429 kts 218°
2026-05-06 12:44 40.14859 -10.16602 34800 ft 429 kts 219°
2026-05-06 12:45 40.12455 -10.18848 34993 ft 429 kts 219°
2026-05-06 12:45 40.10019 -10.21120 35092 ft 430 kts 219°
2026-05-06 12:46 40.02734 -10.27899 35080 ft 429 kts 218°
2026-05-06 12:46 39.97862 -10.32420 35062 ft 428 kts 219°
2026-05-06 12:47 39.93002 -10.36923 35066 ft 428 kts 219°
2026-05-06 12:47 39.88144 -10.41428 35068 ft 428 kts 219°
2026-05-06 12:48 39.83303 -10.45897 35068 ft 428 kts 219°
2026-05-06 12:48 39.78425 -10.50394 35066 ft 428 kts 219°
2026-05-06 12:49 39.73590 -10.54850 35061 ft 428 kts 219°
2026-05-06 12:49 39.68726 -10.59318 35071 ft 428 kts 219°
2026-05-06 12:50 39.63854 -10.63784 35076 ft 428 kts 219°
2026-05-06 12:50 39.59012 -10.68215 35076 ft 428 kts 219°
2026-05-06 12:51 39.54142 -10.72667 35079 ft 428 kts 219°
2026-05-06 12:51 39.49255 -10.77121 35074 ft 428 kts 219°
2026-05-06 12:52 39.44368 -10.81569 35077 ft 428 kts 219°
2026-05-06 12:52 39.39523 -10.85975 35076 ft 428 kts 219°
2026-05-06 12:53 39.34637 -10.90413 35079 ft 428 kts 219°
2026-05-06 12:53 39.29746 -10.94843 35078 ft 429 kts 219°
2026-05-06 12:54 39.24867 -10.99256 35072 ft 431 kts 219°
2026-05-06 12:54 39.19951 -11.03697 35081 ft 431 kts 219°
2026-05-06 12:55 39.15062 -11.08107 35083 ft 431 kts 219°
2026-05-06 12:55 39.10143 -11.12539 35083 ft 431 kts 219°
2026-05-06 12:56 39.05204 -11.16977 35082 ft 431 kts 219°
2026-05-06 12:56 39.00313 -11.21364 35080 ft 431 kts 218°
2026-05-06 12:57 38.95373 -11.25787 35081 ft 431 kts 219°
2026-05-06 12:57 38.90475 -11.30173 35082 ft 431 kts 218°
2026-05-06 12:58 38.85527 -11.34591 35082 ft 433 kts 218°
2026-05-06 12:58 38.80587 -11.38983 35088 ft 433 kts 218°
2026-05-06 12:59 38.75634 -11.43388 35083 ft 433 kts 218°
2026-05-06 12:59 38.70669 -11.47795 35082 ft 433 kts 218°
2026-05-06 13:00 38.65746 -11.52156 35089 ft 433 kts 218°
2026-05-06 13:00 38.60778 -11.56548 35095 ft 433 kts 218°
2026-05-06 13:01 38.55836 -11.60902 35092 ft 433 kts 218°
2026-05-06 13:01 38.50866 -11.65285 35089 ft 432 kts 218°
2026-05-06 13:02 38.45908 -11.69646 35091 ft 432 kts 218°
2026-05-06 13:02 38.40979 -11.73972 35092 ft 433 kts 218°
2026-05-06 13:03 38.36010 -11.78331 35099 ft 433 kts 218°
2026-05-06 13:03 38.31064 -11.82661 35087 ft 433 kts 218°
2026-05-06 13:04 38.26094 -11.87006 35093 ft 432 kts 218°
2026-05-06 13:04 38.21159 -11.91308 35097 ft 432 kts 218°
2026-05-06 13:05 38.16188 -11.95629 35092 ft 432 kts 218°
2026-05-06 13:05 38.11221 -11.99946 35094 ft 432 kts 218°
2026-05-06 13:06 38.06281 -12.04229 35097 ft 432 kts 218°
2026-05-06 13:06 38.01283 -12.08559 35091 ft 434 kts 218°
2026-05-06 13:07 37.96322 -12.12853 35098 ft 433 kts 217°
2026-05-06 13:07 37.91321 -12.17172 35100 ft 433 kts 217°
2026-05-06 13:08 37.86360 -12.21450 35100 ft 433 kts 217°
2026-05-06 13:08 37.81367 -12.25752 35099 ft 434 kts 217°
2026-05-06 13:09 37.76396 -12.30021 35102 ft 434 kts 217°
2026-05-06 13:09 37.71398 -12.34313 35106 ft 434 kts 217°
2026-05-06 13:10 37.66401 -12.38592 35106 ft 434 kts 217°
2026-05-06 13:10 37.61415 -12.42855 35102 ft 438 kts 217°
2026-05-06 13:11 37.56355 -12.47172 35105 ft 439 kts 218°
2026-05-06 13:11 37.51298 -12.51491 35096 ft 438 kts 217°
2026-05-06 13:12 37.46260 -12.55769 35101 ft 437 kts 217°
2026-05-06 13:12 37.41218 -12.60051 35105 ft 437 kts 217°
2026-05-06 13:13 37.36201 -12.64309 35109 ft 437 kts 217°
2026-05-06 13:13 37.31153 -12.68583 35109 ft 437 kts 217°
2026-05-06 13:14 37.26135 -12.72828 35090 ft 437 kts 217°
2026-05-06 13:14 37.21087 -12.77084 35102 ft 436 kts 217°
2026-05-06 13:15 37.16008 -12.81367 35107 ft 441 kts 217°
2026-05-06 13:15 37.10938 -12.85631 35110 ft 441 kts 217°
2026-05-06 13:16 37.05838 -12.89907 35104 ft 441 kts 217°
2026-05-06 13:16 37.00727 -12.94200 35106 ft 441 kts 217°
2026-05-06 13:17 36.95626 -12.98465 35104 ft 440 kts 217°
2026-05-06 13:17 36.90561 -13.02697 35110 ft 440 kts 217°
2026-05-06 13:18 36.85459 -13.06955 35117 ft 440 kts 217°
2026-05-06 13:18 36.80388 -13.11177 35109 ft 440 kts 217°
2026-05-06 13:19 36.75272 -13.15433 35109 ft 444 kts 218°
2026-05-06 13:19 36.70148 -13.19692 35104 ft 445 kts 218°
2026-05-06 13:20 36.64987 -13.23974 35110 ft 445 kts 218°
2026-05-06 13:20 36.59835 -13.28232 35111 ft 445 kts 218°
2026-05-06 13:21 36.54676 -13.32543 35114 ft 444 kts 220°
2026-05-06 13:21 36.49778 -13.37177 35116 ft 443 kts 221°
2026-05-06 13:22 36.44892 -13.41840 35111 ft 442 kts 221°
2026-05-06 13:22 36.40026 -13.46463 35114 ft 442 kts 221°
2026-05-06 13:23 36.35131 -13.51107 35096 ft 445 kts 222°
2026-05-06 13:23 36.30176 -13.55805 35109 ft 448 kts 222°
2026-05-06 13:24 36.25240 -13.60477 35111 ft 448 kts 222°
2026-05-06 13:24 36.20275 -13.65161 35100 ft 448 kts 222°
2026-05-06 13:25 36.15354 -13.69804 35117 ft 447 kts 222°
2026-05-06 13:25 36.10396 -13.74468 35118 ft 447 kts 222°
2026-05-06 13:26 36.05435 -13.79132 35119 ft 447 kts 222°
2026-05-06 13:26 36.00507 -13.83765 35121 ft 447 kts 222°
2026-05-06 13:27 35.95523 -13.88428 35107 ft 453 kts 222°
2026-05-06 13:27 35.90524 -13.93095 35113 ft 452 kts 222°
2026-05-06 13:28 35.85502 -13.97778 35120 ft 452 kts 222°
2026-05-06 13:28 35.80476 -14.02469 35123 ft 452 kts 222°
2026-05-06 13:29 35.75483 -14.07117 35121 ft 452 kts 222°
2026-05-06 13:29 35.70450 -14.11790 35120 ft 452 kts 222°
2026-05-06 13:30 35.65455 -14.16427 35105 ft 452 kts 222°
2026-05-06 13:30 35.60429 -14.21058 35122 ft 451 kts 221°
2026-05-06 13:31 35.55373 -14.25726 35125 ft 456 kts 222°
2026-05-06 13:31 35.50329 -14.30371 35124 ft 456 kts 222°
2026-05-06 13:32 35.45253 -14.35048 35125 ft 456 kts 222°
2026-05-06 13:32 35.41000 -14.38969 35131 ft 456 kts 222°
2026-05-06 13:33 35.35961 -14.43619 35119 ft 454 kts 222°
2026-05-06 13:33 35.30899 -14.48265 35129 ft 454 kts 222°
2026-05-06 13:34 35.25862 -14.52871 35133 ft 454 kts 221°
2026-05-06 13:34 35.20802 -14.57498 35104 ft 454 kts 222°
2026-05-06 13:35 35.15710 -14.62162 35137 ft 458 kts 222°
2026-05-06 13:35 35.10588 -14.66832 35136 ft 458 kts 222°
2026-05-06 13:36 35.05504 -14.71461 35129 ft 458 kts 222°
2026-05-06 13:36 35.00436 -14.76063 35132 ft 458 kts 221°
2026-05-06 13:37 34.95286 -14.80729 35137 ft 458 kts 221°
2026-05-06 13:37 34.90137 -14.85394 35136 ft 458 kts 221°
2026-05-06 13:38 34.85047 -14.89998 35133 ft 458 kts 221°
2026-05-06 13:38 34.79940 -14.94610 35105 ft 460 kts 221°
2026-05-06 13:39 34.74769 -14.99271 35136 ft 462 kts 221°
2026-05-06 13:39 34.69591 -15.03930 35137 ft 462 kts 221°
2026-05-06 13:40 34.64453 -15.08548 35135 ft 462 kts 221°
2026-05-06 13:40 34.59274 -15.13192 35135 ft 462 kts 221°
2026-05-06 13:41 34.54090 -15.17835 35122 ft 462 kts 221°
2026-05-06 13:41 34.48947 -15.22433 35134 ft 461 kts 221°
2026-05-06 13:42 34.43799 -15.27027 35133 ft 461 kts 221°
2026-05-06 13:42 34.38617 -15.31647 35135 ft 461 kts 221°
2026-05-06 13:43 34.33462 -15.36236 35138 ft 461 kts 221°
2026-05-06 13:43 34.28280 -15.40838 35139 ft 461 kts 221°
2026-05-06 13:44 34.23114 -15.45424 35128 ft 459 kts 221°
2026-05-06 13:44 34.17991 -15.49960 35136 ft 458 kts 221°
2026-05-06 13:45 34.12841 -15.54513 35145 ft 458 kts 221°
2026-05-06 13:45 34.07762 -15.58997 34126 ft 454 kts 221°
2026-05-06 13:45 34.05200 -15.61258 33286 ft 456 kts 221°
2026-05-06 13:46 34.02620 -15.63537 32560 ft 457 kts 221°
2026-05-06 13:46 34.00048 -15.65801 31844 ft 458 kts 221°
2026-05-06 13:46 33.97473 -15.68064 31158 ft 458 kts 221°
2026-05-06 13:46 33.94927 -15.70305 30511 ft 459 kts 221°
2026-05-06 13:47 33.92340 -15.72579 29744 ft 461 kts 221°
2026-05-06 13:47 33.89749 -15.74857 28954 ft 462 kts 221°
2026-05-06 13:47 33.87138 -15.77150 28278 ft 465 kts 221°
2026-05-06 13:47 33.84530 -15.79438 27648 ft 462 kts 221°
2026-05-06 13:48 33.81937 -15.81709 27005 ft 460 kts 221°
2026-05-06 13:48 33.79382 -15.83940 26365 ft 457 kts 220°
2026-05-06 13:48 33.76812 -15.86186 25757 ft 454 kts 220°
2026-05-06 13:48 33.74255 -15.88419 25150 ft 451 kts 220°
2026-05-06 13:49 33.71722 -15.90632 24522 ft 449 kts 220°
2026-05-06 13:49 33.69225 -15.92811 23911 ft 446 kts 220°
2026-05-06 13:49 33.66721 -15.94963 23361 ft 439 kts 218°
2026-05-06 13:49 33.64180 -15.96940 23169 ft 430 kts 217°
2026-05-06 13:50 33.61687 -15.98852 22559 ft 423 kts 216°
2026-05-06 13:50 33.59186 -16.00772 21436 ft 430 kts 216°
2026-05-06 13:50 33.56689 -16.02689 20644 ft 429 kts 216°
2026-05-06 13:50 33.54179 -16.04609 20026 ft 424 kts 216°
2026-05-06 13:51 33.51710 -16.06498 19477 ft 417 kts 216°
2026-05-06 13:51 33.49272 -16.08362 18958 ft 411 kts 216°
2026-05-06 13:51 33.46908 -16.10171 18451 ft 405 kts 216°
2026-05-06 13:51 33.44544 -16.11976 17891 ft 398 kts 216°
2026-05-06 13:52 33.42213 -16.13757 17351 ft 396 kts 216°
2026-05-06 13:52 33.39888 -16.15532 16806 ft 396 kts 216°
2026-05-06 13:52 33.37597 -16.17281 16292 ft 395 kts 215°
2026-05-06 13:52 33.35284 -16.19044 15808 ft 393 kts 215°
2026-05-06 13:53 33.32979 -16.20800 15329 ft 392 kts 215°
2026-05-06 13:53 33.30679 -16.22551 14824 ft 392 kts 215°
2026-05-06 13:53 33.28371 -16.24311 14323 ft 392 kts 215°
2026-05-06 13:53 33.26066 -16.26063 13823 ft 392 kts 215°
2026-05-06 13:54 33.23790 -16.27792 13287 ft 391 kts 215°
2026-05-06 13:54 33.21502 -16.29532 12780 ft 385 kts 214°
2026-05-06 13:54 33.19258 -16.31232 12291 ft 378 kts 214°
2026-05-06 13:54 33.18636 -16.31703 12156 ft 376 kts 214°
2026-05-06 13:55 33.16768 -16.33118 11751 ft 370 kts 214°
2026-05-06 13:55 33.14615 -16.34750 11364 ft 362 kts 214°
2026-05-06 13:55 33.12547 -16.36314 11123 ft 350 kts 214°
2026-05-06 13:55 33.10524 -16.37845 10936 ft 338 kts 214°
2026-05-06 13:56 33.08571 -16.39322 10777 ft 326 kts 214°
2026-05-06 13:56 33.06704 -16.40733 10637 ft 314 kts 214°
2026-05-06 13:56 33.04891 -16.42102 10450 ft 304 kts 215°
2026-05-06 13:56 33.03107 -16.43451 10077 ft 303 kts 214°
2026-05-06 13:57 33.01324 -16.44799 9666 ft 301 kts 215°
2026-05-06 13:57 32.99555 -16.46135 9282 ft 299 kts 215°
2026-05-06 13:57 32.97807 -16.47453 8939 ft 295 kts 215°
2026-05-06 13:57 32.96102 -16.48735 8618 ft 291 kts 215°
2026-05-06 13:58 32.94397 -16.50020 8304 ft 288 kts 215°
2026-05-06 13:58 32.92729 -16.51343 7995 ft 286 kts 220°
2026-05-06 13:58 32.91230 -16.52870 7662 ft 281 kts 225°
2026-05-06 13:58 32.89807 -16.54401 7333 ft 278 kts 225°
2026-05-06 13:59 32.88384 -16.55936 7062 ft 272 kts 225°
2026-05-06 13:59 32.86996 -16.57426 6906 ft 262 kts 225°
2026-05-06 13:59 32.85741 -16.58770 6776 ft 252 kts 225°
2026-05-06 13:59 32.85172 -16.59379 6679 ft 250 kts 225°
2026-05-06 14:00 32.83952 -16.60686 6370 ft 247 kts 225°
2026-05-06 14:00 32.82674 -16.62050 6020 ft 247 kts 226°
2026-05-06 14:00 32.81256 -16.63235 5720 ft 252 kts 211°
2026-05-06 14:00 32.79631 -16.64042 5433 ft 254 kts 201°
2026-05-06 14:01 32.77952 -16.64698 5167 ft 254 kts 199°
2026-05-06 14:01 32.76268 -16.65356 4874 ft 255 kts 200°
2026-05-06 14:01 32.74621 -16.66008 4645 ft 246 kts 199°
2026-05-06 14:01 32.73030 -16.66643 4405 ft 236 kts 200°
2026-05-06 14:02 32.71495 -16.67259 4187 ft 228 kts 200°
2026-05-06 14:02 32.70000 -16.67862 3953 ft 225 kts 200°
2026-05-06 14:02 32.68544 -16.68451 3755 ft 221 kts 200°
2026-05-06 14:02 32.67100 -16.69035 3508 ft 216 kts 199°
2026-05-06 14:03 32.65679 -16.69611 3211 ft 215 kts 199°
2026-05-06 14:03 32.64269 -16.70181 2996 ft 213 kts 200°
2026-05-06 14:03 32.62949 -16.70921 2780 ft 209 kts 217°
2026-05-06 14:03 32.61907 -16.72099 2586 ft 205 kts 233°
2026-05-06 14:04 32.61207 -16.73522 2405 ft 202 kts 250°
2026-05-06 14:04 32.60861 -16.75104 2214 ft 191 kts 268°
2026-05-06 14:04 32.60869 -16.76646 1985 ft 187 kts 280°
2026-05-06 14:04 32.61196 -16.78033 1985 ft 166 kts 296°
2026-05-06 14:05 32.61808 -16.79115 1978 ft 154 kts 318°
2026-05-06 14:05 32.62641 -16.79887 1987 ft 151 kts 332°
2026-05-06 14:05 32.63592 -16.80406 1883 ft 149 kts 345°
2026-05-06 14:05 32.64553 -16.80536 1828 ft 130 kts
2026-05-06 14:06 32.65419 -16.80314 1427 ft 125 kts 13°
2026-05-06 14:06 32.65884 -16.80218 1263 ft 129 kts
2026-05-06 14:06 32.66648 -16.80154 988 ft 127 kts
2026-05-06 14:06 32.67469 -16.79818 689 ft 125 kts 25°
2026-05-06 14:07 32.68192 -16.79272 392 ft 127 kts 33°
2026-05-06 14:07 32.68837 -16.78549 231 ft 124 kts 40°
2026-05-06 14:07 32.69427 -16.77868 176 ft 106 kts 44°
2026-05-06 14:07 32.69793 -16.77441 195 ft 44 kts 44°
2026-05-06 14:08 32.69946 -16.77269 198 ft 12 kts 46°
2026-05-06 14:08 32.69941 -16.77186 198 ft 7 kts 147°
2026-05-06 14:08 32.69903 -16.77175 192 ft 8 kts 175°
2026-05-06 14:08 32.69852 -16.77179 187 ft 7 kts 193°
2026-05-06 14:09 32.69807 -16.77216 187 ft 9 kts 224°
2026-05-06 14:09 32.69764 -16.77270 182 ft 9 kts 227°
2026-05-06 14:09 32.69724 -16.77321 177 ft 8 kts 227°
2026-05-06 14:09 32.69682 -16.77374 174 ft 10 kts 227°
2026-05-06 14:10 32.69631 -16.77434 174 ft 8 kts 224°
2026-05-06 14:10 32.69591 -16.77481 174 ft 9 kts 224°
2026-05-06 14:10 32.69553 -16.77528 174 ft 8 kts 226°
2026-05-06 14:10 32.69511 -16.77580 175 ft 10 kts 226°
2026-05-06 14:11 32.69476 -16.77624 175 ft 6 kts 226°
2026-05-06 14:11 32.69463 -16.77637 175 ft 1 kts 206°
2026-05-06 14:11 32.69445 -16.77627 175 ft 4 kts 144°
2026-05-06 14:11 32.69426 -16.77606 175 ft 2 kts 136°
2026-05-06 14:12 32.69416 -16.77594 175 ft 2 kts 137°
2026-05-06 14:12 32.69413 -16.77592 175 ft 1 kts 138°
2026-05-06 14:12 32.69412 -16.77590 175 ft 0 kts 138°
2026-05-06 14:14 32.69412 -16.77591 175 ft 0 kts 138°